This is the latest recevied weather packets stored in our database for station/object IW4DZV-13. If no packets are shown the sender has not sent any weather packets the latest 10 day(s).
| Time | Temp. | Humidity | Pressure | Rain* | Wind** | Luminosity | Snow |
|---|---|---|---|---|---|---|---|
| 1777463124 | 22.78° C | 50% | 1015.4 hPa | 0 mm | - | 870 W/m² | - |
| 1777462222 | 22.78° C | 51% | 1015.5 hPa | 0 mm | - | 856 W/m² | - |
| 1777461326 | 22.22° C | 51% | 1015.5 hPa | 0 mm | - | 323 W/m² | - |
| 1777460425 | 22.78° C | 52% | 1015.6 hPa | 0 mm | - | 276 W/m² | - |
| 1777459519 | 22.22° C | 54% | 1015.5 hPa | 0 mm | - | 842 W/m² | - |
| 1777458618 | 22.22° C | 55% | 1015.6 hPa | 0 mm | - | 533 W/m² | - |
| 1777457722 | 22.78° C | 54% | 1015.6 hPa | 0 mm | - | 461 W/m² | - |
| 1777456817 | 22.22° C | 55% | 1015.6 hPa | 0 mm | - | 830 W/m² | - |
| 1777455915 | 22.22° C | 57% | 1015.5 hPa | 0 mm | - | 779 W/m² | - |
| 1777455016 | 22.22° C | 57% | 1015.6 hPa | 0 mm | - | 246 W/m² | - |
| 1777454112 | 22.22° C | 58% | 1015.6 hPa | 0 mm | - | 673 W/m² | - |
| 1777453213 | 21.67° C | 59% | 1015.6 hPa | 0 mm | - | 733 W/m² | - |
| 1777452307 | 21.11° C | 62% | 1015.6 hPa | 0 mm | - | 737 W/m² | - |
| 1777451405 | 20° C | 66% | 1015.6 hPa | 0 mm | - | 394 W/m² | - |
| 1777450501 | 20° C | 67% | 1015.5 hPa | 0 mm | - | 487 W/m² | - |
| 1777449663 | 20° C | 67% | 1015.5 hPa | 0 mm | - | 267 W/m² | - |
| 1777448757 | 19.44° C | 69% | 1015.4 hPa | 0 mm | - | 301 W/m² | - |
| 1777447855 | 18.89° C | 70% | 1015.5 hPa | 0 mm | - | 487 W/m² | - |
| 1777446959 | 18.33° C | 71% | 1015.4 hPa | 0 mm | - | 443 W/m² | - |
| 1777446049 | 17.78° C | 74% | 1015.3 hPa | 0 mm | - | 364 W/m² | - |
| 1777445145 | 16.67° C | 77% | 1015.3 hPa | 0 mm | - | 325 W/m² | - |
| 1777444240 | 15.56° C | 78% | 1015.1 hPa | 0 mm | - | 288 W/m² | - |
| 1777443335 | 15° C | 79% | 1015 hPa | 0 mm | - | 141 W/m² | - |
| 1777442434 | 14.44° C | 81% | 1014.9 hPa | 0 mm | - | 128 W/m² | - |
| 1777441533 | 13.89° C | 84% | 1014.9 hPa | 0 mm | - | 137 W/m² | - |
* Rain since midnight (hover to see other rain measurements)
** Current wind speed in m/s (hover to see current wind gust speed)